Regional Weather Roundup
Issued by NWS

Home | Current Version | Previous Version | Graphics & Text | Print | Product List | Glossary On
Versions: 1 2 3 4 5 6 7 8 9 10 11 12 13 14 15 16 17 18 19 20 21 22 23 24 25 26 27 28 29 30 31 32 33 34 35 36 37 38 39 40 41 42 43 44 45 46 47 48 49 50
601
ASUS45 KCYS 232210
RWRWY

WYOMING REGIONAL WEATHER ROUNDUP
NATIONAL WEATHER SERVICE CHEYENNE WY
300 PM MST THU FEB 23 2017

NOTE:  "FAIR" INDICATES FEW OR NO CLOUDS BELOW 12,000 FEET
WITH NO SIGNIFICANT WEATHER AND/OR OBSTRUCTIONS TO VISIBILITY.

WYZ001-232300-
YELLOWSTONE NATIONAL PARK

CITY           SKY/WX    TMP DP  RH WIND       PRES   REMARKS
LK YELLOWSTONE   N/A     17   7  64 VRB5      29.70R WCI  10
W YELLOWSTONE  NOT AVBL

$$
WYZ002>013-054>058-071-098>099-232300-
NORTHERN WYOMING

CITY           SKY/WX    TMP DP  RH WIND       PRES   REMARKS
JACKSON        CLOUDY    27  18  69 N21       29.64S WCI  13
CODY           CLOUDY    23  17  78 N17G29    29.82S WCI   9
GREYBULL       CLOUDY    31  20  63 NW18      29.77S WCI  19
WORLAND        CLOUDY    28  24  85 NW14      29.77R WCI  17
SHERIDAN       CLOUDY    29  22  75 E8        29.87S WCI  21
BUFFALO        SNOW      26  21  81 N14G23    29.83R VSB 1/2 WCI  14
GILLETTE       LGT SNOW  26  23  88 NE17      29.82S FOG     WCI  13
HULETT         CLOUDY    27  23  86 MISG      29.86R
NEWCASTLE      LGT SNOW  28  25  86 CALM      29.80S

$$
WYZ014>020-022>026-101>103-232300-
CENTRAL WYOMING

CITY           SKY/WX    TMP DP  RH WIND       PRES   REMARKS
BIG PINEY      CLOUDY    26  16  65 NE10      29.62R WCI  16
PINEDALE       CLOUDY    27  10  50 NE9       29.63R WCI  17
DUBOIS         LGT SNOW  21  18  86 SE14      29.65R VSB 3/4 WCI   8
LANDER         FOG       23  21  92 N13       29.71R VSB 1/2 WCI  11
RIVERTON       SNOW      22  20  92 N21       29.72R VSB 1/2 WCI   6
CASPER         LGT SNOW  20  17  88 E15       29.74R VSB 1   WCI   6
DOUGLAS        SNOW      20  17  88 E12       29.78R VSB 1/2 WCI   8

$$
WYZ021-027>030-104>119-232300-
SOUTHERN WYOMING

CITY           SKY/WX    TMP DP  RH WIND       PRES   REMARKS
EVANSTON       CLOUDY    21  15  78 SW20      29.67R WCI   6
FORT BRIDGER   LGT SNOW  23  21  91 W21G28    29.68S WCI   8
ROCK SPRINGS   SNOW      22  17  81 NW26      29.62R VSB 1/2 WCI   5
DIXON            N/A     27  18  69 S20G32    29.62R WCI  13
RAWLINS        LGT SNOW  21  16  81 E15       29.60R VSB 3/4 WCI   8
SARATOGA       MOCLDY    27  18  69 NE8G17    29.58R WCI  18
LARAMIE        LGT SNOW  18  10  71 NE13      29.59R WCI   5
CHEYENNE       LGT SNOW  18  13  80 NE21G30   29.63R WCI   1
TORRINGTON     SNOW      22  18  85 N15       29.74R VSB 1/2 WCI   9
PINE BLUFFS    CLOUDY    21  18  86 N17G36    29.68R WCI   7

$$




USA.gov is the U.S. government's official web portal to all federal, state and local government web resources and services.